Weather History for KAWO - July, 2013

Change the Weather History Date:

Thursday, July 4, 2013

  Actual Average Record
Temperature  
Mean Temperature 61 °F -  
Max Temperature 69 °F 59 °F 86 °F (2015)
Min Temperature 53 °F 48 °F 41 °F (2011)
Degree Days  
Heating Degree Days 4    
Growing Degree Days 11 (Base 50)    
Moisture  
Dew Point 50 °F    
Average Humidity 68    
Maximum Humidity 82    
Minimum Humidity 46    
Precipitation  
Precipitation 0.00 in - - ()
Sea Level Pressure  
Sea Level Pressure 30.11 in    
Wind  
Wind Speed 6 mph (North)    
Max Wind Speed 10 mph    
Max Gust Speed -    
Visibility 10 miles    
Events      
Averages and records for this station are not official NWS values.
T = Trace of Precipitation, MM = Missing Value Source: NWS Daily Summary

Daily Weather History Graph

Daily Weather History Graph

Search for Another Location

Airport or City:

Trip Planner

Search our weather history database for the weather conditions in past years. The results will help you decide how hot, cold, wet, or windy it might be!

Date:

Astronomy

Jul. 04, 2013 Rise Set
Actual Time 5:14 AM PDT 9:11 PM PDT
Civil Twilight 4:33 AM PDT 9:51 PM PDT
Nautical Twilight 3:37 AM PDT 10:48 PM PDT
Astronomical Twilight 2:06 AM PDT 12:17 AM PDT
Moon 2:41 AM PDT (7/4) 6:15 PM PDT (7/4)
Length of Visible Light 17h 18m
Length of Day
15h 56m
Waning Crescent, 11% of the Moon is Illuminated
Jul 4
Waning Crescent
Jul 8
New
Jul 15
First Quarter
Jul 22
Full
Jul 29
Last Quarter

Hourly Weather History & Observations

Time (PDT) Temp. Dew Point Humidity Pressure Visibility Wind Dir Wind Speed Gust Speed Precip Events Conditions
12:15 AM 55.4 °F 46.4 °F 72% 30.12 in 10.0 mi NNW 8.1 mph - N/A   Clear
12:35 AM 53.6 °F 46.4 °F 77% 30.12 in 10.0 mi NNW 5.8 mph - N/A   Clear
12:55 AM 53.6 °F 46.4 °F 77% 30.12 in 10.0 mi North - - N/A   Clear
1:15 AM 53.6 °F 48.2 °F 82% 30.12 in 10.0 mi North 9.2 mph - N/A   Clear
1:35 AM 53.6 °F 46.4 °F 77% 30.12 in 10.0 mi North 6.9 mph - N/A   Partly Cloudy
1:55 AM 53.6 °F 48.2 °F 82% 30.13 in 10.0 mi North 6.9 mph - N/A   Scattered Clouds
2:15 AM 53.6 °F 48.2 °F 82% 30.12 in 10.0 mi North 6.9 mph - N/A   Scattered Clouds
2:35 AM 53.6 °F 48.2 °F 82% 30.13 in 10.0 mi North 5.8 mph - N/A   Mostly Cloudy
2:55 AM 55.4 °F 48.2 °F 77% 30.13 in 10.0 mi North 6.9 mph - N/A   Overcast
3:15 AM 53.6 °F 48.2 °F 82% 30.13 in 10.0 mi North 5.8 mph - N/A   Overcast
3:35 AM 55.4 °F 50.0 °F 82% 30.13 in 10.0 mi NNE 8.1 mph - N/A   Overcast
3:55 AM 55.4 °F 50.0 °F 82% 30.13 in 10.0 mi NE 6.9 mph - N/A   Overcast
4:15 AM 55.4 °F 50.0 °F 82% 30.13 in 10.0 mi NNE 6.9 mph - N/A   Overcast
4:35 AM 55.4 °F 50.0 °F 82% 30.13 in 10.0 mi NNE 5.8 mph - N/A   Overcast
4:55 AM 55.4 °F 50.0 °F 82% 30.13 in 10.0 mi NE 6.9 mph - N/A   Overcast
5:15 AM 57.2 °F 50.0 °F 77% 30.13 in 10.0 mi NE 6.9 mph - N/A   Overcast
5:35 AM 57.2 °F 50.0 °F 77% 30.13 in 10.0 mi NNE 9.2 mph - N/A   Overcast
5:55 AM 57.2 °F 50.0 °F 77% 30.13 in 10.0 mi ENE 6.9 mph - N/A   Overcast
6:15 AM 57.2 °F 50.0 °F 77% 30.13 in 10.0 mi NE 6.9 mph - N/A   Overcast
6:35 AM 57.2 °F 50.0 °F 77% 30.13 in 10.0 mi NE 6.9 mph - N/A   Overcast
6:55 AM 57.2 °F 50.0 °F 77% 30.14 in 10.0 mi NE 4.6 mph - N/A   Overcast
7:15 AM 57.2 °F 50.0 °F 77% 30.14 in 10.0 mi NE 6.9 mph - N/A   Overcast
7:35 AM 57.2 °F 50.0 °F 77% 30.13 in 10.0 mi NE 6.9 mph - N/A   Overcast
7:55 AM 59.0 °F 50.0 °F 72% 30.14 in 10.0 mi NNE 5.8 mph - N/A   Overcast
8:15 AM 59.0 °F 50.0 °F 72% 30.14 in 10.0 mi NNE 5.8 mph - N/A   Overcast
8:35 AM 59.0 °F 50.0 °F 72% 30.14 in 10.0 mi NNE 4.6 mph - N/A   Overcast
8:55 AM 59.0 °F 51.8 °F 77% 30.14 in 10.0 mi NNE 4.6 mph - N/A   Overcast
9:15 AM 59.0 °F 50.0 °F 72% 30.14 in 10.0 mi Calm Calm - N/A   Overcast
9:35 AM 60.8 °F 51.8 °F 72% 30.14 in 10.0 mi Calm Calm - N/A   Overcast
9:55 AM 60.8 °F 51.8 °F 72% 30.14 in 10.0 mi Calm Calm - N/A   Overcast
10:15 AM 60.8 °F 50.0 °F 68% 30.14 in 10.0 mi Calm Calm - N/A   Overcast
10:35 AM 60.8 °F 51.8 °F 72% 30.14 in 10.0 mi Calm Calm - N/A   Overcast
10:55 AM 60.8 °F 51.8 °F 72% 30.15 in 10.0 mi SW 5.8 mph - N/A   Overcast
11:15 AM 60.8 °F 51.8 °F 72% 30.14 in 10.0 mi SSW 4.6 mph - N/A   Overcast
11:35 AM 60.8 °F 51.8 °F 72% 30.14 in 10.0 mi Calm Calm - N/A   Overcast
11:55 AM 62.6 °F 51.8 °F 68% 30.14 in 10.0 mi Calm Calm - N/A   Overcast
12:15 PM 64.4 °F 51.8 °F 64% 30.14 in 10.0 mi Calm Calm - N/A   Overcast
12:35 PM 64.4 °F 51.8 °F 64% 30.14 in 10.0 mi Calm Calm - N/A   Overcast
12:55 PM 64.4 °F 51.8 °F 64% 30.14 in 10.0 mi Calm Calm - N/A   Overcast
1:15 PM 64.4 °F 50.0 °F 59% 30.14 in 10.0 mi Calm Calm - N/A   Overcast
1:35 PM 66.2 °F 51.8 °F 60% 30.13 in 10.0 mi Calm Calm - N/A   Overcast
1:55 PM 66.2 °F 51.8 °F 60% 30.13 in 10.0 mi Calm Calm - N/A   Overcast
2:15 PM 66.2 °F 51.8 °F 60% 30.12 in 10.0 mi Calm Calm - N/A   Overcast
2:35 PM 66.2 °F 51.8 °F 60% 30.12 in 10.0 mi ENE 3.5 mph - N/A   Overcast
2:55 PM 66.2 °F 51.8 °F 60% 30.11 in 10.0 mi SSW 6.9 mph - N/A   Overcast
3:15 PM 66.2 °F 51.8 °F 60% 30.11 in 10.0 mi South 3.5 mph - N/A   Overcast
3:35 PM 66.2 °F 51.8 °F 60% 30.10 in 10.0 mi SSW 3.5 mph - N/A   Overcast
3:55 PM 66.2 °F 51.8 °F 60% 30.10 in 10.0 mi Calm Calm - N/A   Overcast
4:15 PM 66.2 °F 51.8 °F 60% 30.10 in 10.0 mi Calm Calm - N/A   Overcast
4:35 PM 68.0 °F 51.8 °F 56% 30.09 in 10.0 mi Calm Calm - N/A   Overcast
4:55 PM 69.8 °F 53.6 °F 56% 30.08 in 10.0 mi Calm Calm - N/A   Overcast
5:15 PM 69.8 °F 51.8 °F 53% 30.08 in 10.0 mi Calm Calm - N/A   Overcast
5:35 PM 69.8 °F 53.6 °F 56% 30.08 in 10.0 mi Calm Calm - N/A   Overcast
5:55 PM 69.8 °F 50.0 °F 49% 30.07 in 10.0 mi West 9.2 mph - N/A   Mostly Cloudy
6:15 PM 69.8 °F 48.2 °F 46% 30.07 in 10.0 mi West 9.2 mph - N/A   Clear
6:35 PM 69.8 °F 48.2 °F 46% 30.07 in 10.0 mi WNW 9.2 mph - N/A   Clear
6:55 PM 69.8 °F 48.2 °F 46% 30.06 in 10.0 mi NW 6.9 mph - N/A   Clear
7:15 PM 68.0 °F 48.2 °F 49% 30.06 in 10.0 mi NW 9.2 mph - N/A   Clear
7:35 PM 68.0 °F 48.2 °F 49% 30.06 in 10.0 mi NW 6.9 mph - N/A   Clear
7:55 PM 66.2 °F 48.2 °F 52% 30.06 in 10.0 mi North 4.6 mph - N/A   Clear
8:15 PM 66.2 °F 48.2 °F 52% 30.06 in 10.0 mi NNW 4.6 mph - N/A   Clear
8:35 PM 64.4 °F 48.2 °F 56% 30.05 in 10.0 mi NW 6.9 mph - N/A   Clear
8:55 PM 62.6 °F 48.2 °F 59% 30.06 in 10.0 mi NW 9.2 mph - N/A   Clear
9:15 PM 60.8 °F 50.0 °F 68% 30.06 in 10.0 mi NW 8.1 mph - N/A   Clear
9:35 PM 59.0 °F 50.0 °F 72% 30.06 in 10.0 mi NW 10.4 mph - N/A   Clear
9:55 PM 59.0 °F 48.2 °F 67% 30.07 in 10.0 mi NW 6.9 mph - N/A   Clear
10:15 PM 57.2 °F 48.2 °F 72% 30.07 in 9.0 mi NNW 8.1 mph - N/A   Clear
10:35 PM 57.2 °F 48.2 °F 72% 30.07 in 8.0 mi NNW 6.9 mph - N/A   Clear
10:55 PM 57.2 °F 48.2 °F 72% 30.07 in 10.0 mi NNW 8.1 mph - N/A   Clear
11:15 PM 55.4 °F 48.2 °F 77% 30.07 in 10.0 mi North 5.8 mph - N/A   Clear
11:35 PM 55.4 °F 48.2 °F 77% 30.07 in 10.0 mi North 6.9 mph - N/A   Clear
11:55 PM 55.4 °F 48.2 °F 77% 30.06 in 10.0 mi North 5.8 mph - N/A   Clear